User: anonymous   Login
Location: Unspecified
(0.0000°N, 0.0000°E)
Time: 07:16:11
(UTC+00:00)
Language:

Tiangong - Orbit

View from above orbital plane
View from above orbital plane
View from above satellite
View from above satellite

Ground track
Ground track

The orbit data is extracted from the following two-line orbital elements,

1 48274U 21035A   23160.54674791  .00020616  00000-0  25187-3 0  9992
2 48274  41.4734 202.3095 0002979 320.8913  39.1710 15.59933405120642
Epoch (UTC): 09 June 2023 13:07:19
Eccentricity: 0.0002979
inclination: 41.4734°
perigee height: 386 km
apogee height: 390 km
right ascension of ascending node: 202.3095°
argument of perigee: 320.8913°
revolutions per day: 15.59933405
mean anomaly at epoch: 39.1710°
orbit number at epoch: 12064

The dashed part of the orbit path shows where the satellite is in the earth's shadow,  

DLR